This is the latest recevied weather packets stored in our database for station/object W0SS-13. If no packets are shown the sender has not sent any weather packets the latest 10 day(s).
| Time | Temp. | Humidity | Pressure | Rain* | Wind** | Luminosity | Snow |
|---|---|---|---|---|---|---|---|
| 1778023327 | 11.67° C | 76% | 1012.7 hPa | 0 mm | - | 110 W/m² | - |
| 1778023024 | 11.67° C | 76% | 1012.6 hPa | 0 mm | - | 112 W/m² | - |
| 1778022723 | 11.11° C | 77% | 1012.7 hPa | 0 mm | - | 99 W/m² | - |
| 1778022421 | 11.11° C | 78% | 1012.9 hPa | 0 mm | - | 90 W/m² | - |
| 1778022117 | 11.11° C | 77% | 1012.8 hPa | 0 mm | - | 75 W/m² | - |
| 1778021813 | 11.11° C | 78% | 1013 hPa | 0 mm | - | 96 W/m² | - |
| 1778021510 | 11.11° C | 76% | 1012.8 hPa | 0 mm | - | 74 W/m² | - |
| 1778021206 | 11.67° C | 77% | 1013 hPa | 0 mm | - | 99 W/m² | - |
| 1778020904 | 11.67° C | 77% | 1012.6 hPa | 0 mm | - | 96 W/m² | - |
| 1778020601 | 11.67° C | 77% | 1012.8 hPa | 0 mm | - | 88 W/m² | - |
| 1778020297 | 11.11° C | 77% | 1012.7 hPa | 0 mm | - | 109 W/m² | - |
| 1778019993 | 11.11° C | 77% | 1012.5 hPa | 0 mm | - | 129 W/m² | - |
| 1778019690 | 11.11° C | 77% | 1012.8 hPa | 0 mm | - | 109 W/m² | - |
| 1778019387 | 11.11° C | 77% | 1012.9 hPa | 0 mm | - | 109 W/m² | - |
| 1778019083 | 11.11° C | 77% | 1012.8 hPa | 0 mm | - | 117 W/m² | - |
| 1778018781 | 11.11° C | 78% | 1012.8 hPa | 0 mm | - | 101 W/m² | - |
| 1778018478 | 11.11° C | 78% | 1012.8 hPa | 0 mm | - | 147 W/m² | - |
| 1778018176 | 10.56° C | 79% | 1012.6 hPa | 0 mm | - | 180 W/m² | - |
| 1778017874 | 10.56° C | 79% | 1012.7 hPa | 0 mm | - | 154 W/m² | - |
| 1778017571 | 10.56° C | 79% | 1013 hPa | 0 mm | - | 134 W/m² | - |
| 1778017268 | 10.56° C | 78% | 1012.8 hPa | 0 mm | - | 149 W/m² | - |
| 1778016966 | 10.56° C | 79% | 1012.7 hPa | 0 mm | - | 156 W/m² | - |
| 1778016662 | 10.56° C | 79% | 1013.2 hPa | 0 mm | - | 153 W/m² | - |
| 1778016358 | 10.56° C | 79% | 1012.9 hPa | 0 mm | - | 168 W/m² | - |
| 1778016056 | 10.56° C | 78% | 1013 hPa | 0 mm | - | 165 W/m² | - |
* Rain latest hour (hover to see other rain measurements)
** Current wind speed in m/s (hover to see current wind gust speed)